Regional Weather Roundup
Issued by NWS Wilmington, NC

Home | Current Version | Previous Version | Text Only | Print | Product List | Glossary On
Versions: 1 2 3 4 5 6 7 8 9 10 11 12 13 14 15 16 17 18 19 20 21 22 23 24 25 26 27 28 29 30 31 32 33 34 35 36 37 38 39 40 41 42 43 44 45 46 47 48 49 50
000
ASUS42 KILM 221510
RWRILM
RWRILM
REGIONAL HOURLY WEATHER ROUNDUP
NATIONAL WEATHER SERVICE WILMINGTON NC
1100 AM EDT FRI AUG 22 2014

NOTE: "FAIR" INDICATES FEW OR NO CLOUDS BELOW 12,000 FEET WITH NO
SIGNIFICANT WEATHER AND/OR OBSTRUCTIONS TO VISIBILITY.

...............WFO WILMINGTON COUNTY WARNING AREA...............

......COASTAL NC AND SC COUNTIES......

CITY           SKY/WX    TMP DP  RH WIND       PRES   REMARKS
WILMINGTON     SUNNY     89  72  56 W7        30.03S HX  96
SOUTHPORT      MOSUNNY   90  72  54 W7        30.03S HX  97
N MYRTLE BEACH NOT AVBL
MYRTLE BEACH   SUNNY     90  73  58 W9        30.03F HX  98

......INLAND NC AND SC COUNTIES.......

CITY           SKY/WX    TMP DP  RH WIND       PRES   REMARKS
LUMBERTON      PTSUNNY   89  72  56 NW8       30.03F HX  96
ELIZABETHTOWN  MOSUNNY   87  71  57 W6        30.04S HX  93
WHITEVILLE     MOSUNNY   87  71  58 W5        30.03S HX  93
FLORENCE       MOSUNNY   91  70  49 W6        30.03F HX  96
DARLINGTON     MOSUNNY   90  73  58 CALM      30.04F HX  98

....................REST OF NORTH CAROLINA......................

.........EASTERN NC.........

CITY           SKY/WX    TMP DP  RH WIND       PRES   REMARKS
CAPE HATTERAS  MOSUNNY   82  74  76 VRB7      29.99S
JACKSONVILLE   MOSUNNY   90  70  51 W8        30.02S HX  95
MOREHEAD CITY  MOSUNNY   89  73  59 NW8       30.01R HX  97
KENANSVILLE    MOSUNNY   87  69  53 NW5       30.03S HX  91
NEW BERN       SUNNY     89  72  56 NW7       30.02R HX  96
ELIZABETH CITY SUNNY     84  73  69 NW8       29.98S HX  90

.........CENTRAL NC.........

CITY           SKY/WX    TMP DP  RH WIND       PRES   REMARKS
RALEIGH DURHAM PTSUNNY   85  71  63 VRB5      30.03F HX  90
ROCKY MOUNT    SUNNY     86  72  62 NW6       30.01F HX  92
ROANOKE RAPIDS NOT AVBL
FAYETTEVILLE   PTSUNNY   89  71  55 N7        30.03S HX  95
HOFFMAN        PTSUNNY   88  71  57 N5        30.06S HX  94

.........WESTERN NC.........

CITY           SKY/WX    TMP DP  RH WIND       PRES   REMARKS
CHARLOTTE      PTSUNNY   88  68  51 N7        30.07S HX  91
GREENSBORO     CLOUDY    86  70  58 VRB3      30.06S HX  90
HICKORY        NOT AVBL
BOONE          NOT AVBL
ASHEVILLE      NOT AVBL

.....................REST OF SOUTH CAROLINA.....................

.........EASTERN SC.........

CITY           SKY/WX    TMP DP  RH WIND       PRES   REMARKS
CHARLESTON     MOSUNNY   93  71  48 W6        30.04S HX 100
BEAUFORT MCAS  MOSUNNY   92  72  51 N7        30.05S HX  99
HILTON HEAD    NOT AVBL

.........CENTRAL SC.........

CITY           SKY/WX    TMP DP  RH WIND       PRES   REMARKS
COLUMBIA       PTSUNNY   91  70  49 NW5       30.04F HX  96
ORANGEBURG     SUNNY     89  70  53 NW6       30.06S HX  94
SUMTER SHAW    SUNNY     91  74  57 W8        30.03S HX 100

.........WESTERN SC.........

CITY           SKY/WX    TMP DP  RH WIND       PRES   REMARKS
GREENVILLE     NOT AVBL
ROCK HILL      MOSUNNY   87  71  58 VRB5      30.07S HX  93
ANDERSON       SUNNY     88  71  57 NW6       30.10R HX  94
CLEMSON        NOT AVBL
GREENWOOD      SUNNY     89  69  51 VRB6      30.10S HX  93


...................COASTAL AND OFFSHORE REPORTS..................

................LOCAL PIERS AND NC RESERVE................


STATION/POSITION TIME  SKY/WX   TEMP    WIND        PRES    VSBY
                                AIR SEA DIR/SP/G
                 (UTC)          (F)     (DEG/KT/KT) (MB)    (MI)
JOHNY MRCER PIER 1500            88 83  320/  5/  8 1016.2S
NC RESRV MASNBRO 1400            84     270/  2     1017.0S
OCEAN CREST PIER 1500            86 84  230/  6/  7 1016.0S
SPRINGMAID  PIER 1500            88 84  270/  5/  6 1016.9S


................COASTAL AND OFFSHORE BUOYS................


STATION/POSITION TIME  SKY/WX   TEMP    WIND        PRES    VSBY
                                AIR SEA DIR/SP/G
                 (UTC)          (F)     (DEG/KT/KT) (MB)    (MI)
DIMNDSHOAL 41025 1500            79     280/  6/  8 1015.5R
WVE H/P(F/S)=  2/ 9 WND WVE H/P(F/S)=  2/ 3 SWL H/P/D(F/S/D)=  2/ 40/ 9

CAPE LOOKOUT     1500            85     270/  9/ 11 1016.1S
ONSLOW BAY 41036 1500            82 83  280/  8/ 10 1016.1S
WVE H/P(F/S)=  2/ 4 WND WVE H/P(F/S)=  2/ 3 SWL H/P/D(F/S/D)=  2/210/ 4

5 WRITEBCH 41038 1500            81 83  290/  2/  4   N/A
MASONBORO  41110 1500               83                N/A
WVE H/P(F/S)=  1/ 5 WND WVE H/P(F/S)=  2/ 5

WILM HARBR 41108 1500               84                N/A
WVE H/P(F/S)=  2/ 4 WND WVE H/P(F/S)=  2/ 4

27WRITEBCH 41037 1400            80 83  290/  8/ 10 1016.6R
FRYING PAN 41013 NOT AVBL
SUNST NRSH 41024 1400            85     270/  6/  6 1016.9R
CAPRS NRSH 41029 1400            87     260/  6/  6   N/A
EDISTO     41004 1500            84 84  270/  6/  6 1017.1R
WVE H/P(F/S)=  2/ 8 WND WVE H/P(F/S)=  2/ 4 SWL H/P/D(F/S/D)=  2/ 8



..........OFFSHORE BUOYS BEYOND 100 NM OFFSHORE...........
.....IN A TRIANGLE---HAT TO BERMUDA TO BAHAMAS TO HAT.....


STATION/POSITION TIME  SKY/WX   TEMP    WIND        PRES    VSBY
                                AIR SEA DIR/SP/G
                 (UTC)          (F)     (DEG/KT/KT) (MB)    (MI)
150E HAT   41001 NOT AVBL
W BERMUDA  41048 1420            81 81  220/ 14/ 17 1017.5S
WVE H/P(F/S)=  3/ 5 WND WVE H/P(F/S)=  3/ 5 SWL H/P/D(F/S/D)=  2/ 80/ 9

ATLANTIC S 41049 1410            85 86  110/  8/ 10 1019.3F
WVE H/P(F/S)=  3/ 9 WND WVE H/P(F/S)=  2/ 4 SWL H/P/D(F/S/D)=  3/130/ 9

E BAHAMAS  41046 1356            85 85   90/ 17/ 19 1016.5R
WVE H/P(F/S)=  5/ 7 WND WVE H/P(F/S)=  5/ 7 SWL H/P/D(F/S/D)=  2/100/ 9

NE BAHAMAS 41047 1448            83 84   80/  8/ 10 1019.5R
WVE H/P(F/S)=  3/ 6 WND WVE H/P(F/S)=  2/ 4 SWL H/P/D(F/S/D)=  3/130/ 6

120E CANVRL41010 1500            78 86  290/ 19/ 23 1019.3R
WVE H/P(F/S)=  2/ 8 WND WVE H/P(F/S)=  2/ 5 SWL H/P/D(F/S/D)=  2/ 60/ 8


END


USA.gov is the U.S. government's official web portal to all federal, state and local government web resources and services.